Time,TemperatureF,DewpointF,PressureIn,WindDirection,WindDirectionDegrees,WindSpeedMPH,WindSpeedGustMPH,Humidity,HourlyPrecipIn,Conditions,Clouds,dailyrainin,SolarRadiationWatts/m^2,SoftwareType,DateUTC
2013-11-18 03:27:00,34.3,26.2,29.78,WNW,289,7.9,28.8,72,0.00,OVC,,0.00,0.0,WeatherDisplay:10.37,2013-11-18 09:27:00,
2013-11-18 03:32:00,34.1,25.7,29.78,NW,323,10.7,19.6,71,0.00,OVC,,0.00,0.0,WeatherDisplay:10.37,2013-11-18 09:32:00,
2013-11-18 03:37:00,34.1,25.7,29.78,West,278,15.0,20.0,71,0.00,OVC,,0.00,0.0,WeatherDisplay:10.37,2013-11-18 09:37:00,
2013-11-18 03:42:00,34.1,25.3,29.78,West,273,9.4,16.8,70,0.00,OVC,,0.00,0.0,WeatherDisplay:10.37,2013-11-18 09:42:00,
2013-11-18 03:47:00,34.0,25.6,29.79,West,271,8.0,20.0,71,0.00,OVC,,0.00,0.0,WeatherDisplay:10.37,2013-11-18 09:47:00,
2013-11-18 03:52:00,34.0,25.2,29.79,WNW,288,16.7,25.2,70,0.00,OVC,,0.00,0.0,WeatherDisplay:10.37,2013-11-18 09:52:00,
2013-11-18 03:57:00,34.0,25.2,29.79,WNW,286,10.0,22.0,70,0.00,OVC,,0.00,0.0,WeatherDisplay:10.37,2013-11-18 09:57:00,
2013-11-18 04:02:00,34.0,25.6,29.80,West,267,15.8,24.2,71,0.00,OVC,,0.00,0.0,WeatherDisplay:10.37,2013-11-18 10:02:00,
2013-11-18 04:07:00,33.8,25.4,29.80,WNW,285,14.0,24.0,71,0.00,OVC,,0.00,0.0,WeatherDisplay:10.37,2013-11-18 10:07:00,
2013-11-18 04:12:00,33.8,25.7,29.80,West,259,5.3,14.4,72,0.00,OVC,,0.00,0.0,WeatherDisplay:10.37,2013-11-18 10:12:00,
2013-11-18 04:17:00,33.8,25.4,29.81,West,280,10.0,28.0,71,0.00,OVC,,0.00,0.0,WeatherDisplay:10.37,2013-11-18 10:17:00,
2013-11-18 04:22:00,33.7,25.3,29.81,West,278,12.0,15.0,71,0.00,OVC,,0.00,0.0,WeatherDisplay:10.37,2013-11-18 10:22:00,
2013-11-18 04:27:00,33.7,25.0,29.81,WNW,287,14.0,23.0,70,0.00,OVC,,0.00,0.0,WeatherDisplay:10.37,2013-11-18 10:27:00,
2013-11-18 04:32:00,33.7,25.0,29.82,West,259,11.5,19.6,70,0.00,OVC,,0.00,0.0,WeatherDisplay:10.37,2013-11-18 10:32:00,
2013-11-18 04:37:00,33.5,24.8,29.82,WNW,284,9.2,13.2,70,0.00,OVC,,0.00,0.0,WeatherDisplay:10.37,2013-11-18 10:37:00,
2013-11-18 04:42:00,33.7,25.0,29.82,West,277,8.9,13.2,70,0.00,OVC,,0.00,0.0,WeatherDisplay:10.37,2013-11-18 10:42:00,
2013-11-18 04:47:00,33.5,25.1,29.82,West,281,8.0,16.0,71,0.00,OVC,,0.00,0.0,WeatherDisplay:10.37,2013-11-18 10:47:00,
2013-11-18 04:52:00,33.5,25.1,29.82,West,263,7.0,15.0,71,0.00,OVC,,0.00,0.0,WeatherDisplay:10.37,2013-11-18 10:52:00,
2013-11-18 04:57:00,33.5,25.4,29.82,WSW,258,12.0,18.0,72,0.00,OVC,,0.00,0.0,WeatherDisplay:10.37,2013-11-18 10:57:00,
2013-11-18 05:02:00,33.5,25.4,29.83,West,266,16.4,18.4,72,0.00,OVC,,0.00,0.0,WeatherDisplay:10.37,2013-11-18 11:02:00,
2013-11-18 05:07:00,33.5,25.1,29.83,West,277,8.0,20.0,71,0.00,OVC,,0.00,0.0,WeatherDisplay:10.37,2013-11-18 11:07:00,
2013-11-18 05:12:00,33.5,25.1,29.83,West,271,8.1,15.0,71,0.00,OVC,,0.00,0.0,WeatherDisplay:10.37,2013-11-18 11:12:00,
2013-11-18 05:17:00,33.5,25.1,29.84,West,274,12.0,24.0,71,0.00,OVC,,0.00,0.0,WeatherDisplay:10.37,2013-11-18 11:17:00,
2013-11-18 05:22:00,33.4,25.0,29.84,West,268,9.9,12.7,71,0.00,OVC,,0.00,0.0,WeatherDisplay:10.37,2013-11-18 11:22:00,
2013-11-18 05:27:00,33.2,24.8,29.84,WNW,297,7.6,19.6,71,0.00,OVC,,0.00,0.0,WeatherDisplay:10.37,2013-11-18 11:27:00,
2013-11-18 05:32:00,33.2,24.8,29.85,West,263,11.4,13.2,71,0.00,OVC,,0.00,0.0,WeatherDisplay:10.37,2013-11-18 11:32:00,
2013-11-18 05:37:00,33.2,25.1,29.85,West,278,16.9,21.9,72,0.00,OVC,,0.00,0.0,WeatherDisplay:10.37,2013-11-18 11:37:00,
2013-11-18 05:42:00,33.2,25.1,29.85,WNW,300,10.3,13.2,72,0.00,OVC,,0.00,0.0,WeatherDisplay:10.37,2013-11-18 11:42:00,
2013-11-18 05:47:00,33.2,24.8,29.85,WNW,287,13.8,23.0,71,0.00,OVC,,0.00,0.0,WeatherDisplay:10.37,2013-11-18 11:47:00,
2013-11-18 05:52:00,33.1,24.7,29.85,WNW,284,10.5,23.0,71,0.00,OVC,,0.00,0.0,WeatherDisplay:10.37,2013-11-18 11:52:00,
2013-11-18 05:57:00,33.1,25.1,29.85,West,275,10.8,12.0,72,0.00,OVC,,0.00,0.0,WeatherDisplay:10.37,2013-11-18 11:57:00,
2013-11-18 06:02:00,32.9,24.9,29.86,West,270,14.7,20.7,72,0.00,OVC,,0.00,0.0,WeatherDisplay:10.37,2013-11-18 12:02:00,
2013-11-18 06:07:00,32.9,24.9,29.86,NW,323,5.1,10.8,72,0.00,OVC,,0.00,0.0,WeatherDisplay:10.37,2013-11-18 12:07:00,
2013-11-18 06:12:00,32.9,24.9,29.86,WNW,284,7.4,9.6,72,0.00,OVC,,0.00,0.0,WeatherDisplay:10.37,2013-11-18 12:12:00,
2013-11-18 06:17:00,32.9,24.9,29.86,West,277,6.4,9.2,72,0.00,OVC,,0.00,0.0,WeatherDisplay:10.37,2013-11-18 12:17:00,
2013-11-18 06:22:00,32.9,24.5,29.86,WNW,297,10.0,16.0,71,0.00,OVC,,0.00,0.0,WeatherDisplay:10.37,2013-11-18 12:22:00,
2013-11-18 06:27:00,32.8,24.4,29.86,West,275,10.9,14.4,71,0.00,OVC,,0.00,0.0,WeatherDisplay:10.37,2013-11-18 12:27:00,
2013-11-18 06:32:00,32.8,24.1,29.88,WNW,286,9.8,12.0,70,0.00,OVC,,0.00,0.0,WeatherDisplay:10.37,2013-11-18 12:32:00,
2013-11-18 06:37:00,32.8,24.1,29.88,NW,317,7.4,9.6,70,0.00,OVC,,0.00,0.0,WeatherDisplay:10.37,2013-11-18 12:37:00,
2013-11-18 06:42:00,32.8,23.8,29.88,West,275,9.0,24.0,69,0.00,OVC,,0.00,0.0,WeatherDisplay:10.37,2013-11-18 12:42:00,
2013-11-18 06:47:00,32.9,23.8,29.88,West,271,7.0,22.0,69,0.00,OVC,,0.00,0.0,WeatherDisplay:10.37,2013-11-18 12:47:00,
2013-11-18 06:52:00,32.9,23.8,29.88,West,281,10.2,15.0,69,0.00,OVC,,0.00,0.0,WeatherDisplay:10.37,2013-11-18 12:52:00,
2013-11-18 06:57:00,32.9,23.8,29.88,WNW,286,8.9,15.0,69,0.00,OVC,,0.00,0.0,WeatherDisplay:10.37,2013-11-18 12:57:00,
2013-11-18 07:02:00,32.8,23.7,29.90,SW,221,12.5,18.4,69,0.00,OVC,,0.00,0.0,WeatherDisplay:10.37,2013-11-18 13:02:00,
2013-11-18 07:07:00,32.8,24.1,29.90,West,274,14.4,17.3,70,0.00,OVC,,0.00,0.0,WeatherDisplay:10.37,2013-11-18 13:07:00,
2013-11-18 07:12:00,32.7,23.6,29.90,West,281,17.0,22.8,69,0.00,OVC,,0.00,5.0,WeatherDisplay:10.37,2013-11-18 13:12:00,
2013-11-18 07:17:00,32.7,23.6,29.90,West,275,7.5,15.0,69,0.00,OVC,,0.00,9.0,WeatherDisplay:10.37,2013-11-18 13:17:00,
2013-11-18 07:22:00,32.7,23.6,29.90,WNW,286,10.9,16.8,69,0.00,OVC,,0.00,11.0,WeatherDisplay:10.37,2013-11-18 13:22:00,
2013-11-18 07:27:00,32.7,23.6,29.90,NW,320,9.2,12.0,69,0.00,OVC,,0.00,12.0,WeatherDisplay:10.37,2013-11-18 13:27:00,
2013-11-18 07:32:00,32.5,23.5,29.91,West,259,9.9,20.7,69,0.00,OVC,,0.00,21.0,WeatherDisplay:10.37,2013-11-18 13:32:00,
2013-11-18 07:37:00,32.6,23.5,29.91,WNW,296,8.0,21.0,69,0.00,OVC,,0.00,21.0,WeatherDisplay:10.37,2013-11-18 13:37:00,
2013-11-18 07:42:00,32.7,23.6,29.91,West,273,10.0,16.8,69,0.00,OVC,,0.00,21.0,WeatherDisplay:10.37,2013-11-18 13:42:00,
2013-11-18 07:47:00,32.4,23.4,29.91,West,266,13.1,18.4,69,0.00,OVC,,0.00,25.0,WeatherDisplay:10.37,2013-11-18 13:47:00,
2013-11-18 07:52:00,32.4,23.4,29.91,WNW,294,16.0,20.4,69,0.00,OVC,,0.00,37.0,WeatherDisplay:10.37,2013-11-18 13:52:00,
2013-11-18 07:57:00,32.4,23.4,29.91,WSW,256,9.1,24.0,69,0.00,OVC,,0.00,37.0,WeatherDisplay:10.37,2013-11-18 13:57:00,
2013-11-18 08:02:00,32.4,23.4,29.92,WNW,296,8.9,12.0,69,0.00,OVC,,0.00,28.0,WeatherDisplay:10.37,2013-11-18 14:02:00,
2013-11-18 08:07:00,32.4,23.4,29.92,West,271,9.7,18.4,69,0.00,OVC,,0.00,40.0,WeatherDisplay:10.37,2013-11-18 14:07:00,
2013-11-18 08:12:00,32.2,23.2,29.92,West,273,15.1,21.9,69,0.00,OVC,,0.00,42.0,WeatherDisplay:10.37,2013-11-18 14:12:00,
2013-11-18 08:17:00,32.2,23.2,29.93,West,275,9.7,16.1,69,0.00,OVC,,0.00,54.0,WeatherDisplay:10.37,2013-11-18 14:17:00,
2013-11-18 08:22:00,32.2,22.8,29.93,West,265,12.3,19.6,68,0.00,OVC,,0.00,56.0,WeatherDisplay:10.37,2013-11-18 14:22:00,
2013-11-18 08:27:00,32.1,22.0,29.93,WNW,286,10.4,23.0,66,0.00,OVC,,0.00,60.0,WeatherDisplay:10.37,2013-11-18 14:27:00,
2013-11-18 08:32:00,32.2,22.5,29.94,WNW,289,14.6,20.7,67,0.00,OVC,,0.00,62.0,WeatherDisplay:10.37,2013-11-18 14:32:00,
2013-11-18 08:37:00,32.2,22.8,29.94,WNW,296,10.0,17.0,68,0.00,OVC,,0.00,58.0,WeatherDisplay:10.37,2013-11-18 14:37:00,
2013-11-18 08:42:00,32.2,22.8,29.94,NW,306,12.9,27.6,68,0.00,OVC,,0.00,63.0,WeatherDisplay:10.37,2013-11-18 14:42:00,
2013-11-18 08:47:00,32.1,22.7,29.95,North,350,11.5,19.2,68,0.00,OVC,,0.00,70.0,WeatherDisplay:10.37,2013-11-18 14:47:00,
2013-11-18 08:52:00,32.1,22.7,29.95,West,280,10.6,20.4,68,0.00,OVC,,0.00,70.0,WeatherDisplay:10.37,2013-11-18 14:52:00,
2013-11-18 08:59:00,32.1,22.7,29.96,WNW,300,9.5,13.2,68,0.00,OVC,,0.00,76.0,WeatherDisplay:10.37,2013-11-18 14:59:00,
2013-11-18 09:04:00,31.9,22.5,29.96,WNW,289,12.6,18.4,68,0.00,OVC,,0.00,69.0,WeatherDisplay:10.37,2013-11-18 15:04:00,
2013-11-18 09:09:00,31.9,22.9,29.96,West,275,10.8,16.1,69,0.00,OVC,,0.00,76.0,WeatherDisplay:10.37,2013-11-18 15:09:00,
2013-11-18 09:14:00,31.9,22.9,29.96,NW,317,12.4,15.6,69,0.00,OVC,,0.00,67.0,WeatherDisplay:10.37,2013-11-18 15:14:00,
2013-11-18 09:19:00,31.8,22.8,29.97,WNW,284,11.2,15.6,69,0.00,OVC,,0.00,90.0,WeatherDisplay:10.37,2013-11-18 15:19:00,
2013-11-18 09:24:00,31.8,22.8,29.97,WNW,290,10.0,17.3,69,0.00,OVC,,0.00,121.0,WeatherDisplay:10.37,2013-11-18 15:24:00,
2013-11-18 09:32:00,31.9,22.9,29.98,West,272,8.6,16.1,69,0.00,OVC,,0.00,95.0,WeatherDisplay:10.37,2013-11-18 15:32:00,
2013-11-18 09:37:00,31.8,22.4,29.98,NW,317,8.0,15.0,68,0.00,OVC,,0.00,121.0,WeatherDisplay:10.37,2013-11-18 15:37:00,
2013-11-18 09:42:00,31.8,22.1,29.98,NNW,333,9.7,16.1,67,0.00,OVC,,0.00,107.0,WeatherDisplay:10.37,2013-11-18 15:42:00,
2013-11-18 09:47:00,31.8,22.1,30.00,West,265,14.9,17.3,67,0.00,OVC,,0.00,111.0,WeatherDisplay:10.37,2013-11-18 15:47:00,
2013-11-18 09:51:00,31.8,22.1,30.00,NW,316,10.3,15.0,67,0.00,OVC,,0.00,91.0,WeatherDisplay:10.37,2013-11-18 15:51:00,
2013-11-18 09:56:00,31.9,22.5,30.00,NW,324,5.6,9.6,68,0.00,OVC,,0.00,88.0,WeatherDisplay:10.37,2013-11-18 15:56:00,
2013-11-18 10:01:00,31.9,22.9,30.01,NW,304,10.2,15.0,69,0.00,OVC,,0.00,90.0,WeatherDisplay:10.37,2013-11-18 16:01:00,
2013-11-18 10:06:00,31.9,22.5,30.01,WNW,292,9.4,10.8,68,0.00,OVC,,0.00,95.0,WeatherDisplay:10.37,2013-11-18 16:06:00,
2013-11-18 10:11:00,31.8,22.8,30.01,NW,309,9.1,17.3,69,0.00,OVC,,0.00,74.0,WeatherDisplay:10.37,2013-11-18 16:11:00,
2013-11-18 10:16:00,31.8,22.8,30.03,WNW,291,9.1,14.4,69,0.00,OVC,,0.00,84.0,WeatherDisplay:10.37,2013-11-18 16:16:00,
2013-11-18 10:50:00,32.1,23.8,30.03,WNW,287,7.7,20.7,71,0.00,OVC,,0.00,98.0,WeatherDisplay:10.37,2013-11-18 16:50:00,
2013-11-18 10:55:00,32.1,23.8,30.03,NW,323,9.9,13.2,71,0.00,OVC,,0.00,104.0,WeatherDisplay:10.37,2013-11-18 16:55:00,
2013-11-18 11:00:00,32.1,23.1,30.04,NNW,327,10.7,16.8,69,0.00,OVC,,0.00,183.0,WeatherDisplay:10.37,2013-11-18 17:00:00,
2013-11-18 11:05:00,32.1,22.7,30.04,West,271,8.1,11.5,68,0.00,OVC,,0.00,176.0,WeatherDisplay:10.37,2013-11-18 17:05:00,
2013-11-18 11:10:00,32.1,22.4,30.04,West,267,12.0,19.6,67,0.00,OVC,,0.00,207.0,WeatherDisplay:10.37,2013-11-18 17:10:00,
2013-11-18 11:15:00,32.2,22.5,30.05,WNW,293,7.5,11.5,67,0.00,OVC,,0.00,192.0,WeatherDisplay:10.37,2013-11-18 17:15:00,
2013-11-18 11:20:00,32.4,22.3,30.05,NW,322,13.2,20.4,66,0.00,OVC,,0.00,171.0,WeatherDisplay:10.37,2013-11-18 17:20:00,
2013-11-18 11:25:00,32.2,22.1,30.05,WNW,292,10.7,13.2,66,0.00,OVC,,0.00,192.0,WeatherDisplay:10.37,2013-11-18 17:25:00,
2013-11-18 11:30:00,32.1,22.0,30.05,NW,318,12.0,17.3,66,0.00,OVC,,0.00,220.0,WeatherDisplay:10.37,2013-11-18 17:30:00,
2013-11-18 11:35:00,32.2,22.1,30.05,NW,308,11.1,16.1,66,0.00,OVC,,0.00,232.0,WeatherDisplay:10.37,2013-11-18 17:35:00,
2013-11-18 11:40:00,32.4,22.3,30.05,NW,317,7.8,16.1,66,0.00,OVC,,0.00,239.0,WeatherDisplay:10.37,2013-11-18 17:40:00,
2013-11-18 11:45:00,32.7,22.9,30.06,NW,319,5.9,8.4,67,0.00,OVC,,0.00,179.0,WeatherDisplay:10.37,2013-11-18 17:45:00,
2013-11-18 11:56:00,32.5,22.4,30.06,WNW,294,12.7,17.3,66,0.00,OVC,,0.00,250.0,WeatherDisplay:10.37,2013-11-18 17:56:00,
2013-11-18 12:01:00,32.7,22.2,30.07,WNW,287,12.2,19.6,65,0.00,OVC,,0.00,200.0,WeatherDisplay:10.37,2013-11-18 18:01:00,
2013-11-18 12:06:00,32.9,22.8,30.07,NW,322,9.9,16.8,66,0.00,OVC,,0.00,234.0,WeatherDisplay:10.37,2013-11-18 18:06:00,
2013-11-18 12:11:00,32.8,22.3,30.07,WNW,288,8.8,13.2,65,0.00,OVC,,0.00,169.0,WeatherDisplay:10.37,2013-11-18 18:11:00,
2013-11-18 12:16:00,32.9,22.8,30.08,NW,304,4.5,6.0,66,0.00,OVC,,0.00,192.0,WeatherDisplay:10.37,2013-11-18 18:16:00,
2013-11-18 12:21:00,33.1,23.0,30.08,WNW,284,10.2,17.3,66,0.00,OVC,,0.00,197.0,WeatherDisplay:10.37,2013-11-18 18:21:00,
2013-11-18 12:26:00,33.2,22.7,30.08,NW,321,12.2,16.1,65,0.00,OVC,,0.00,292.0,WeatherDisplay:10.37,2013-11-18 18:26:00,
2013-11-18 12:31:00,33.2,22.7,30.08,WNW,290,8.3,13.2,65,0.00,OVC,,0.00,176.0,WeatherDisplay:10.37,2013-11-18 18:31:00,
2013-11-18 12:36:00,32.9,22.8,30.08,West,275,9.7,15.0,66,0.00,OVC,,0.00,188.0,WeatherDisplay:10.37,2013-11-18 18:36:00,
2013-11-18 12:41:00,32.9,22.4,30.08,WNW,302,5.5,12.7,65,0.00,OVC,,0.00,171.0,WeatherDisplay:10.37,2013-11-18 18:41:00,
2013-11-18 12:46:00,33.1,22.6,30.09,NW,317,10.8,16.1,65,0.00,OVC,,0.00,193.0,WeatherDisplay:10.37,2013-11-18 18:46:00,
2013-11-18 12:51:00,33.1,23.0,30.09,West,267,6.9,12.0,66,0.00,OVC,,0.00,209.0,WeatherDisplay:10.37,2013-11-18 18:51:00,
2013-11-18 12:56:00,32.9,22.8,30.09,NW,324,7.1,9.6,66,0.00,OVC,,0.00,192.0,WeatherDisplay:10.37,2013-11-18 18:56:00,
2013-11-18 13:09:00,33.1,23.3,30.09,WNW,294,7.9,12.7,67,0.00,OVC,,0.00,125.0,WeatherDisplay:10.37,2013-11-18 19:09:00,
2013-11-18 13:14:00,32.8,22.7,30.09,NW,319,10.3,12.7,66,0.00,OVC,,0.00,114.0,WeatherDisplay:10.37,2013-11-18 19:14:00,
2013-11-18 13:19:00,32.8,23.0,30.10,WNW,293,4.4,9.6,67,0.00,OVC,,0.00,116.0,WeatherDisplay:10.37,2013-11-18 19:19:00,
2013-11-18 13:24:00,32.7,22.9,30.10,West,271,7.2,9.6,67,0.00,OVC,,0.00,104.0,WeatherDisplay:10.37,2013-11-18 19:24:00,
2013-11-18 13:29:00,32.5,22.4,30.10,WNW,284,7.0,12.0,66,0.00,OVC,,0.00,148.0,WeatherDisplay:10.37,2013-11-18 19:29:00,
2013-11-18 13:34:00,32.4,22.3,30.11,West,271,9.4,14.4,66,0.00,OVC,,0.00,123.0,WeatherDisplay:10.37,2013-11-18 19:34:00,
2013-11-18 13:39:00,32.4,22.3,30.11,NW,309,9.1,17.3,66,0.00,OVC,,0.00,130.0,WeatherDisplay:10.37,2013-11-18 19:39:00,
2013-11-18 13:44:00,32.4,22.3,30.11,West,274,12.6,17.3,66,0.00,OVC,,0.00,160.0,WeatherDisplay:10.37,2013-11-18 19:44:00,
2013-11-18 13:49:00,32.5,22.4,30.12,NW,325,8.7,13.2,66,0.00,OVC,,0.00,207.0,WeatherDisplay:10.37,2013-11-18 19:49:00,
2013-11-18 13:54:00,32.5,22.4,30.12,NW,311,9.6,15.6,66,0.00,OVC,,0.00,158.0,WeatherDisplay:10.37,2013-11-18 19:54:00,
2013-11-18 13:59:00,32.7,22.2,30.12,NW,308,10.3,14.4,65,0.00,OVC,,0.00,114.0,WeatherDisplay:10.37,2013-11-18 19:59:00,
2013-11-18 14:10:00,32.4,21.9,30.12,NW,304,7.2,18.4,65,0.00,OVC,,0.00,146.0,WeatherDisplay:10.37,2013-11-18 20:10:00,
2013-11-18 14:15:00,32.7,22.6,30.13,WNW,286,13.0,19.2,66,0.00,OVC,,0.00,128.0,WeatherDisplay:10.37,2013-11-18 20:15:00,
2013-11-18 14:20:00,32.2,21.7,30.13,West,271,12.0,17.3,65,0.00,OVC,,0.00,137.0,WeatherDisplay:10.37,2013-11-18 20:20:00,
2013-11-18 14:25:00,32.2,21.7,30.13,North,355,11.5,24.2,65,0.00,OVC,,0.00,144.0,WeatherDisplay:10.37,2013-11-18 20:25:00,
2013-11-18 14:30:00,32.1,21.7,30.13,WNW,302,8.8,20.7,65,0.00,OVC,,0.00,121.0,WeatherDisplay:10.37,2013-11-18 20:30:00,
2013-11-18 14:35:00,32.1,21.7,30.14,West,277,10.8,12.0,65,0.00,OVC,,0.00,139.0,WeatherDisplay:10.37,2013-11-18 20:35:00,
2013-11-18 14:40:00,32.2,22.1,30.14,WNW,286,13.0,19.6,66,0.00,OVC,,0.00,128.0,WeatherDisplay:10.37,2013-11-18 20:40:00,
2013-11-18 14:45:00,32.2,22.1,30.14,WNW,286,10.7,18.0,66,0.00,OVC,,0.00,121.0,WeatherDisplay:10.37,2013-11-18 20:45:00,
2013-11-18 14:50:00,32.1,22.0,30.14,NW,324,8.1,16.1,66,0.00,OVC,,0.00,107.0,WeatherDisplay:10.37,2013-11-18 20:50:00,
2013-11-18 14:55:00,32.1,22.0,30.14,NW,315,11.0,14.4,66,0.00,OVC,,0.00,88.0,WeatherDisplay:10.37,2013-11-18 20:55:00,
2013-11-18 15:00:00,32.1,22.4,30.15,WNW,296,4.1,7.2,67,0.00,OVC,,0.00,81.0,WeatherDisplay:10.37,2013-11-18 21:00:00,
2013-11-18 15:05:00,32.2,22.8,30.15,WNW,285,1.4,5.8,68,0.00,OVC,,0.00,109.0,WeatherDisplay:10.37,2013-11-18 21:05:00,
2013-11-18 15:10:00,32.2,22.5,30.15,NW,311,9.3,15.0,67,0.00,OVC,,0.00,83.0,WeatherDisplay:10.37,2013-11-18 21:10:00,
2013-11-18 15:15:00,32.2,22.5,30.16,NW,304,2.5,6.0,67,0.00,OVC,,0.00,86.0,WeatherDisplay:10.37,2013-11-18 21:15:00,
2013-11-18 15:20:00,32.2,22.8,30.16,WNW,301,6.0,15.0,68,0.00,OVC,,0.00,146.0,WeatherDisplay:10.37,2013-11-18 21:20:00,
2013-11-18 15:25:00,32.1,22.4,30.16,WNW,282,4.8,15.0,67,0.00,OVC,,0.00,102.0,WeatherDisplay:10.37,2013-11-18 21:25:00,
2013-11-18 15:30:00,32.1,22.4,30.16,NW,304,5.1,7.2,67,0.00,OVC,,0.00,72.0,WeatherDisplay:10.37,2013-11-18 21:30:00,
2013-11-18 15:35:00,31.9,22.2,30.16,NW,317,6.3,8.4,67,0.00,OVC,,0.00,65.0,WeatherDisplay:10.37,2013-11-18 21:35:00,
2013-11-18 15:40:00,31.9,22.2,30.16,NNW,328,5.3,9.6,67,0.00,OVC,,0.00,65.0,WeatherDisplay:10.37,2013-11-18 21:40:00,
2013-11-18 15:53:00,31.8,22.4,30.16,NW,304,6.6,9.6,68,0.00,BKN,,0.00,30.0,WeatherDisplay:10.37,2013-11-18 21:53:00,
2013-11-18 15:58:00,31.6,22.2,30.16,NW,319,6.3,9.6,68,0.00,BKN,,0.00,23.0,WeatherDisplay:10.37,2013-11-18 21:58:00,
2013-11-18 16:03:00,31.5,22.5,30.16,WNW,286,4.0,7.2,69,0.00,BKN,,0.00,19.0,WeatherDisplay:10.37,2013-11-18 22:03:00,
2013-11-18 16:08:00,31.5,22.5,30.16,NW,312,3.6,7.2,69,0.00,BKN,,0.00,25.0,WeatherDisplay:10.37,2013-11-18 22:08:00,
2013-11-18 16:13:00,31.5,22.5,30.16,NW,317,4.8,9.6,69,0.00,BKN,,0.00,18.0,WeatherDisplay:10.37,2013-11-18 22:13:00,
2013-11-18 16:18:00,31.5,22.5,30.17,NW,318,6.0,9.6,69,0.00,BKN,,0.00,11.0,WeatherDisplay:10.37,2013-11-18 22:18:00,
2013-11-18 16:23:00,31.3,22.3,30.17,WNW,290,4.2,8.4,69,0.00,SCT,,0.00,7.0,WeatherDisplay:10.37,2013-11-18 22:23:00,
2013-11-18 16:28:00,31.3,22.3,30.17,WNW,293,7.4,14.4,69,0.00,SCT,,0.00,5.0,WeatherDisplay:10.37,2013-11-18 22:28:00,
2013-11-18 16:33:00,31.2,22.2,30.18,NW,304,8.4,12.0,69,0.00,SCT,,0.00,0.0,WeatherDisplay:10.37,2013-11-18 22:33:00,
2013-11-18 16:38:00,31.2,22.2,30.18,WNW,295,5.2,13.2,69,0.00,SCT,,0.00,0.0,WeatherDisplay:10.37,2013-11-18 22:38:00,
2013-11-18 16:43:00,31.0,22.0,30.18,WNW,292,9.3,16.8,69,0.00,SCT,,0.00,0.0,WeatherDisplay:10.37,2013-11-18 22:43:00,
2013-11-18 17:03:00,30.6,22.0,30.19,WNW,284,0.8,15.0,70,0.00,SCT,,0.00,0.0,WeatherDisplay:10.37,2013-11-18 23:03:00,
2013-11-18 17:08:00,30.4,22.1,30.19,WNW,295,3.6,8.4,71,0.00,SCT,,0.00,0.0,WeatherDisplay:10.37,2013-11-18 23:08:00,
2013-11-18 17:13:00,30.3,22.0,30.19,WNW,288,0.0,0.0,71,0.00,CLR,,0.00,0.0,WeatherDisplay:10.37,2013-11-18 23:13:00,
2013-11-18 17:18:00,30.1,22.2,30.19,WNW,292,0.8,4.6,72,0.00,CLR,,0.00,0.0,WeatherDisplay:10.37,2013-11-18 23:18:00,
2013-11-18 17:23:00,30.0,22.1,30.19,WNW,296,0.2,3.6,72,0.00,CLR,,0.00,0.0,WeatherDisplay:10.37,2013-11-18 23:23:00,
2013-11-18 17:28:00,30.0,22.1,30.19,WNW,296,0.0,0.0,72,0.00,CLR,,0.00,0.0,WeatherDisplay:10.37,2013-11-18 23:28:00,
2013-11-18 17:33:00,29.8,22.2,30.20,WNW,290,0.0,0.0,73,0.00,CLR,,0.00,0.0,WeatherDisplay:10.37,2013-11-18 23:33:00,
2013-11-18 17:38:00,29.7,22.1,30.20,NW,306,0.0,0.0,73,0.00,CLR,,0.00,0.0,WeatherDisplay:10.37,2013-11-18 23:38:00,
2013-11-18 17:43:00,29.4,21.8,30.20,WNW,293,0.6,4.8,73,0.00,CLR,,0.00,0.0,WeatherDisplay:10.37,2013-11-18 23:43:00,
2013-11-18 17:54:00,29.4,21.8,30.21,WNW,296,0.0,7.2,73,0.00,CLR,,0.00,0.0,WeatherDisplay:10.37,2013-11-18 23:54:00,
2013-11-18 17:59:00,29.4,21.8,30.21,WNW,296,0.0,0.0,73,0.00,CLR,,0.00,0.0,WeatherDisplay:10.37,2013-11-18 23:59:00,
2013-11-18 18:04:00,29.3,22.0,30.21,NW,313,0.0,0.0,74,0.00,CLR,,0.00,0.0,WeatherDisplay:10.37,2013-11-19 00:04:00,
2013-11-18 18:09:00,29.3,22.0,30.21,NW,306,0.0,0.0,74,0.00,CLR,,0.00,0.0,WeatherDisplay:10.37,2013-11-19 00:09:00,
2013-11-18 18:14:00,29.3,22.0,30.21,NW,304,0.0,2.3,74,0.00,CLR,,0.00,0.0,WeatherDisplay:10.37,2013-11-19 00:14:00,
2013-11-18 18:19:00,29.1,21.8,30.22,WNW,289,0.3,2.4,74,0.00,CLR,,0.00,0.0,WeatherDisplay:10.37,2013-11-19 00:19:00,
2013-11-18 18:24:00,29.1,22.2,30.22,WNW,284,0.0,0.0,75,0.00,CLR,,0.00,0.0,WeatherDisplay:10.37,2013-11-19 00:24:00,
2013-11-18 18:29:00,29.0,22.1,30.22,WNW,284,0.0,0.0,75,0.00,CLR,,0.00,0.0,WeatherDisplay:10.37,2013-11-19 00:29:00,
2013-11-18 18:34:00,29.0,22.4,30.23,WNW,287,0.0,0.0,76,0.00,CLR,,0.00,0.0,WeatherDisplay:10.37,2013-11-19 00:34:00,
2013-11-18 18:39:00,28.8,22.2,30.23,WNW,300,0.0,0.0,76,0.00,CLR,,0.00,0.0,WeatherDisplay:10.37,2013-11-19 00:39:00,
2013-11-18 18:44:00,28.5,21.9,30.23,WNW,300,0.0,0.0,76,0.00,CLR,,0.00,0.0,WeatherDisplay:10.37,2013-11-19 00:44:00,
2013-11-18 22:40:00,25.6,20.0,30.29,WNW,284,0.0,6.0,79,0.00,CLR,,0.00,0.0,WeatherDisplay:10.37,2013-11-19 04:40:00,
2013-11-18 22:52:00,25.7,20.1,30.28,WNW,284,0.0,0.0,79,0.00,CLR,,0.00,0.0,WeatherDisplay:10.37,2013-11-19 04:52:00,
2013-11-18 22:57:00,25.6,20.0,30.28,WNW,284,0.0,0.0,79,0.00,CLR,,0.00,0.0,WeatherDisplay:10.37,2013-11-19 04:57:00,
2013-11-18 23:01:00,25.6,20.0,30.28,WNW,284,0.0,0.0,79,0.00,CLR,,0.00,0.0,WeatherDisplay:10.37,2013-11-19 05:01:00,
2013-11-18 23:02:00,25.6,20.0,30.28,WNW,284,0.0,0.0,79,0.00,CLR,,0.00,0.0,WeatherDisplay:10.37,2013-11-19 05:02:00,
2013-11-18 23:07:00,25.6,20.0,30.28,WNW,284,0.0,0.0,79,0.00,CLR,,0.00,0.0,WeatherDisplay:10.37,2013-11-19 05:07:00,
2013-11-18 23:12:00,25.6,20.0,30.28,WNW,284,0.0,1.2,79,0.00,CLR,,0.00,0.0,WeatherDisplay:10.37,2013-11-19 05:12:00,
2013-11-18 23:17:00,25.6,20.0,30.28,WNW,284,0.0,0.0,79,0.00,CLR,,0.00,0.0,WeatherDisplay:10.37,2013-11-19 05:17:00,
2013-11-18 23:22:00,25.6,20.0,30.28,NW,325,1.2,4.8,79,0.00,CLR,,0.00,0.0,WeatherDisplay:10.37,2013-11-19 05:22:00,
2013-11-18 23:27:00,25.6,20.0,30.28,WNW,298,1.8,3.6,79,0.00,CLR,,0.00,0.0,WeatherDisplay:10.37,2013-11-19 05:27:00,
2013-11-18 23:32:00,25.6,20.0,30.29,WNW,290,0.0,0.0,79,0.00,CLR,,0.00,0.0,WeatherDisplay:10.37,2013-11-19 05:32:00,
2013-11-18 23:37:00,25.6,20.0,30.29,WNW,295,0.0,0.0,79,0.00,CLR,,0.00,0.0,WeatherDisplay:10.37,2013-11-19 05:37:00,